| time (UTC) | temp C | wind direction | speed KPH | gust KPH | rain 1hr cm | rain 24hr cm | rain mn cm | humidity % | barometer mb |
| 20260504191039 | 20 | 0.0 | 0.0 | 0.00 | 0.00 | 0.00 | 44 | 1005.5 | |
| 20260504190541 | 20 | 0.0 | 0.0 | 0.00 | 0.00 | 0.00 | 44 | 1005.6 | |
| 20260504190053 | 20 | 0.0 | 0.0 | 0.00 | 0.00 | 0.00 | 45 | 1005.5 | |
| 20260504185541 | 20 | 0.0 | 0.0 | 0.00 | 0.00 | 0.00 | 44 | 1005.7 | |
| 20260504185041 | 20 | 0.0 | 0.0 | 0.00 | 0.00 | 0.00 | 46 | 1005.6 | |
| 20260504184548 | 20 | 0.0 | 0.0 | 0.00 | 0.00 | 0.00 | 48 | 1005.7 | |
| 20260504184044 | 20 | 0.0 | 0.0 | 0.00 | 0.00 | 0.00 | 46 | 1005.8 | |
| 20260504183541 | 19 | 0.0 | 0.0 | 0.00 | 0.00 | 0.00 | 46 | 1005.8 | |
| 20260504183057 | 19 | 0.0 | 0.0 | 0.00 | 0.00 | 0.00 | 47 | 1005.7 | |
| 20260504182543 | 18 | 0.0 | 0.0 | 0.00 | 0.00 | 0.00 | 49 | 1005.8 | |
| 20260504182044 | 18 | 0.0 | 0.0 | 0.00 | 0.00 | 0.00 | 48 | 1005.8 | |
| 20260504181546 | 18 | 0.0 | 0.0 | 0.00 | 0.00 | 0.00 | 48 | 1005.9 | |
| 20260504181044 | 18 | 0.0 | 0.0 | 0.00 | 0.00 | 0.00 | 47 | 1005.9 | |
| 20260504180543 | 18 | 0.0 | 0.0 | 0.00 | 0.00 | 0.00 | 50 | 1006.0 | |
| 20260504180122 | 18 | 0.0 | 0.0 | 0.00 | 0.00 | 0.00 | 50 | 1006.0 | |
| 20260504175546 | 18 | 0.0 | 0.0 | 0.00 | 0.00 | 0.00 | 46 | 1006.0 | |
| 20260504175043 | 18 | 0.0 | 0.0 | 0.00 | 0.00 | 0.00 | 48 | 1006.0 | |
| 20260504174548 | 17 | 0.0 | 0.0 | 0.00 | 0.00 | 0.00 | 47 | 1006.1 | |
| 20260504174043 | 17 | 0.0 | 0.0 | 0.00 | 0.00 | 0.00 | 48 | 1006.1 | |
| 20260504173543 | 17 | 0.0 | 0.0 | 0.00 | 0.00 | 0.00 | 48 | 1006.2 | |
| 20260504173049 | 17 | 0.0 | 0.0 | 0.00 | 0.00 | 0.00 | 48 | 1006.0 | |
| 20260504172543 | 17 | 0.0 | 0.0 | 0.00 | 0.00 | 0.00 | 47 | 1006.1 | |
| 20260504172044 | 18 | 0.0 | 0.0 | 0.00 | 0.00 | 0.00 | 50 | 1006.1 | |
| 20260504171553 | 18 | 0.0 | 0.0 | 0.00 | 0.00 | 0.00 | 45 | 1006.1 | |
| 20260504171045 | 18 | 0.0 | 0.0 | 0.00 | 0.00 | 0.00 | 50 | 1006.2 | |
| 20260504170543 | 18 | 0.0 | 0.0 | 0.00 | 0.00 | 0.00 | 49 | 1006.2 | |
| 20260504151043 | 15 | 0.0 | 0.0 | 0.00 | 0.00 | 0.00 | 55 | 1007.2 | |
| 20260504150545 | 15 | 0.0 | 0.0 | 0.00 | 0.00 | 0.00 | 58 | 1007.3 | |
| 20260504141043 | 12 | 0.0 | 0.0 | 0.00 | 0.00 | 0.00 | 59 | 1007.3 | |
| 20260504140543 | 11 | 0.0 | 0.0 | 0.00 | 0.00 | 0.00 | 59 | 1007.4 | |
| 20260504130544 | 10 | 0.0 | 0.0 | 0.00 | 0.00 | 0.00 | 61 | 1007.5 | |
| 20260504120103 | 8 | 0.0 | 0.0 | 0.00 | 0.00 | 0.00 | 65 | 1007.9 | |
| 20260504110544 | 7 | 0.0 | 0.0 | 0.00 | 0.00 | 0.00 | 67 | 1007.8 | |
| 20260504100539 | 6 | 0.0 | 0.0 | 0.00 | 0.00 | 0.00 | 69 | 1007.8 | |
| 20260504081547 | 6 | 0.0 | 0.0 | 0.00 | 0.00 | 0.00 | 71 | 1008.0 | |
| 20260504081039 | 6 | 0.0 | 0.0 | 0.00 | 0.00 | 0.00 | 70 | 1007.9 | |
| 20260504080540 | 6 | 0.0 | 0.0 | 0.00 | 0.00 | 0.00 | 70 | 1008.0 | |
| 20260504050540 | 7 | 0.0 | 0.0 | 0.00 | 0.00 | 0.00 | 79 | 1008.7 | |
| 20260504050105 | 7 | 0.0 | 0.0 | 0.00 | 0.00 | 0.00 | 83 | 1008.8 | |
| 20260504045539 | 7 | 0.0 | 0.0 | 0.00 | 0.00 | 0.00 | 79 | 1008.8 | |
| 20260504045039 | 7 | 0.0 | 0.0 | 0.00 | 0.00 | 0.00 | 80 | 1008.8 | |
| 20260504044549 | 7 | 0.0 | 0.0 | 0.00 | 0.00 | 0.00 | 83 | 1008.8 | |
| 20260504044043 | 7 | 0.0 | 0.0 | 0.00 | 0.00 | 0.00 | 84 | 1008.7 | |
| 20260504043539 | 7 | 0.0 | 0.0 | 0.00 | 0.00 | 0.00 | 84 | 1008.7 | |
| 20260504043056 | 6 | 0.0 | 0.0 | 0.00 | 0.00 | 0.00 | 83 | 1008.8 | |
| 20260504042538 | 6 | 0.0 | 0.0 | 0.00 | 0.00 | 0.00 | 83 | 1008.7 | |
| 20260504042044 | 6 | 0.0 | 0.0 | 0.00 | 0.00 | 0.00 | 82 | 1008.8 | |
| 20260504041547 | 6 | 0.0 | 0.0 | 0.00 | 0.00 | 0.00 | 83 | 1008.8 | |
| 20260504041039 | 6 | 0.0 | 0.0 | 0.00 | 0.00 | 0.00 | 84 | 1008.9 | |
| 20260504040539 | 6 | 0.0 | 0.0 | 0.00 | 0.00 | 0.00 | 84 | 1008.9 | |
| 20260504035540 | 6 | 0.0 | 0.0 | 0.00 | 0.00 | 0.00 | 86 | 1009.0 | |
| 20260504035046 | 6 | 0.0 | 0.0 | 0.00 | 0.00 | 0.00 | 86 | 1008.9 | |
| 20260504034555 | 6 | 0.0 | 0.0 | 0.00 | 0.00 | 0.00 | 86 | 1008.8 | |
| 20260504034039 | 6 | 0.0 | 0.0 | 0.00 | 0.00 | 0.00 | 86 | 1008.8 | |
| 20260504033539 | 6 | 0.0 | 0.0 | 0.00 | 0.00 | 0.00 | 86 | 1008.8 | |
| 20260504033056 | 6 | 0.0 | 0.0 | 0.00 | 0.00 | 0.00 | 85 | 1008.9 | |
| 20260504032540 | 6 | 0.0 | 0.0 | 0.00 | 0.00 | 0.00 | 86 | 1009.0 | |
| 20260504032045 | 7 | 0.0 | 0.0 | 0.00 | 0.00 | 0.00 | 85 | 1009.1 | |
| 20260504031602 | 7 | 0.0 | 0.0 | 0.00 | 0.00 | 0.00 | 83 | 1009.4 | |
| 20260504031039 | 7 | 0.0 | 0.0 | 0.00 | 0.00 | 0.00 | 83 | 1009.7 | |
| 20260504030539 | 7 | 0.0 | 0.0 | 0.00 | 0.00 | 0.00 | 83 | 1009.8 | |
| 20260504030150 | 7 | 0.0 | 0.0 | 0.00 | 0.00 | 0.00 | 82 | 1009.6 | |
| 20260504025539 | 7 | 0.0 | 0.0 | 0.00 | 0.00 | 0.00 | 81 | 1009.4 | |
| 20260504025042 | 7 | 0.0 | 0.0 | 0.00 | 0.00 | 0.00 | 81 | 1009.4 | |
| 20260504024557 | 7 | 0.0 | 0.0 | 0.00 | 0.00 | 0.00 | 81 | 1009.6 | |
| 20260504024041 | 7 | 0.0 | 0.0 | 0.00 | 0.00 | 0.00 | 79 | 1009.8 | |
| 20260504023539 | 7 | 0.0 | 0.0 | 0.00 | 0.00 | 0.00 | 76 | 1009.8 | |
| 20260504023051 | 7 | 0.0 | 0.0 | 0.00 | 0.00 | 0.00 | 75 | 1010.0 | |
| 20260504022538 | 8 | 0.0 | 0.0 | 0.00 | 0.00 | 0.00 | 73 | 1010.0 | |
| 20260504022043 | 8 | 0.0 | 0.0 | 0.00 | 0.00 | 0.00 | 71 | 1010.0 | |
| 20260504021552 | 8 | 0.0 | 0.0 | 0.00 | 0.00 | 0.00 | 69 | 1009.9 | |
| 20260504021041 | 8 | 0.0 | 0.0 | 0.00 | 0.00 | 0.00 | 69 | 1009.9 | |
| 20260504020541 | 8 | 0.0 | 0.0 | 0.00 | 0.00 | 0.00 | 70 | 1009.8 | |
| 20260504020104 | 8 | 0.0 | 0.0 | 0.00 | 0.00 | 0.00 | 67 | 1009.7 | |
| 20260504015540 | 8 | 0.0 | 0.0 | 0.00 | 0.00 | 0.00 | 66 | 1009.7 | |
| 20260504015041 | 8 | 0.0 | 0.0 | 0.00 | 0.00 | 0.00 | 67 | 1009.6 | |
| 20260504014553 | 8 | 0.0 | 0.0 | 0.00 | 0.00 | 0.00 | 66 | 1009.5 | |
| 20260504014040 | 8 | 0.0 | 0.0 | 0.00 | 0.00 | 0.00 | 63 | 1009.6 | |
| 20260504013541 | 8 | 0.0 | 0.0 | 0.00 | 0.00 | 0.00 | 65 | 1009.3 | |
| 20260504013052 | 8 | 0.0 | 0.0 | 0.00 | 0.00 | 0.00 | 65 | 1009.4 | |
| 20260504012543 | 8 | 0.0 | 0.0 | 0.00 | 0.00 | 0.00 | 65 | 1009.3 | |
| 20260504012041 | 8 | 0.0 | 0.0 | 0.00 | 0.00 | 0.00 | 65 | 1009.2 | |
| 20260504011554 | 8 | 0.0 | 0.0 | 0.00 | 0.00 | 0.00 | 63 | 1009.1 | |
| 20260504011040 | 8 | 0.0 | 0.0 | 0.00 | 0.00 | 0.00 | 65 | 1009.2 | |
| 20260504010541 | 8 | 0.0 | 0.0 | 0.00 | 0.00 | 0.00 | 66 | 1009.3 | |
| 20260504010053 | 8 | 0.0 | 0.0 | 0.00 | 0.00 | 0.00 | 61 | 1009.3 | |
| 20260504005541 | 8 | 0.0 | 0.0 | 0.00 | 0.00 | 0.00 | 61 | 1009.2 | |
| 20260504005041 | 8 | 0.0 | 0.0 | 0.00 | 0.00 | 0.00 | 64 | 1009.3 | |
| 20260504004551 | 8 | 0.0 | 0.0 | 0.00 | 0.00 | 0.00 | 60 | 1009.2 | |
| 20260504004038 | 8 | 0.0 | 0.0 | 0.00 | 0.00 | 0.00 | 60 | 1009.3 | |
| 20260504003541 | 8 | 0.0 | 0.0 | 0.00 | 0.00 | 0.00 | 60 | 1009.3 | |
| 20260504003049 | 8 | 0.0 | 0.0 | 0.00 | 0.00 | 0.00 | 60 | 1009.3 | |
| 20260504002543 | 9 | 0.0 | 0.0 | 0.00 | 0.00 | 0.00 | 58 | 1009.3 | |
| 20260504002041 | 9 | 0.0 | 0.0 | 0.00 | 0.00 | 0.00 | 57 | 1009.3 | |
| 20260504001550 | 9 | 0.0 | 0.0 | 0.00 | 0.00 | 0.00 | 56 | 1009.4 | |
| 20260504001041 | 9 | 0.0 | 0.0 | 0.00 | 0.00 | 0.00 | 55 | 1009.4 | |
| 20260504000544 | 9 | 0.0 | 0.0 | 0.00 | 0.00 | 0.00 | 56 | 1009.3 | |
| 20260504000054 | 9 | 0.0 | 0.0 | 0.00 | 0.00 | 0.00 | 56 | 1009.3 | |
| 20260503235543 | 9 | 0.0 | 0.0 | 0.00 | 0.00 | 0.00 | 56 | 1009.3 | |
| 20260503235043 | 9 | 0.0 | 0.0 | 0.00 | 0.00 | 0.00 | 55 | 1009.1 | |
| 20260503234549 | 9 | 0.0 | 0.0 | 0.00 | 0.00 | 0.00 | 53 | 1009.1 | |
| 20260503234047 | 9 | 0.0 | 0.0 | 0.00 | 0.00 | 0.00 | 54 | 1009.1 | |
| 20260503233545 | 9 | 0.0 | 0.0 | 0.00 | 0.00 | 0.00 | 54 | 1009.0 | |
| 20260503233056 | 9 | 0.0 | 0.0 | 0.00 | 0.00 | 0.00 | 53 | 1008.9 | |
| 20260503232542 | 10 | 0.0 | 0.0 | 0.00 | 0.00 | 0.00 | 53 | 1008.9 | |
| 20260503232042 | 10 | 0.0 | 0.0 | 0.00 | 0.00 | 0.00 | 52 | 1008.8 | |
| 20260503231552 | 10 | 0.0 | 0.0 | 0.00 | 0.00 | 0.00 | 52 | 1008.8 | |
| 20260503231044 | 10 | 0.0 | 0.0 | 0.00 | 0.00 | 0.00 | 51 | 1008.8 | |
| 20260503230543 | 10 | 0.0 | 0.0 | 0.00 | 0.00 | 0.00 | 52 | 1008.7 | |
| 20260503230104 | 10 | 0.0 | 0.0 | 0.00 | 0.00 | 0.00 | 55 | 1008.8 | |
| 20260503225543 | 10 | 0.0 | 0.0 | 0.00 | 0.00 | 0.00 | 54 | 1008.8 | |
| 20260503225043 | 10 | 0.0 | 0.0 | 0.00 | 0.00 | 0.00 | 52 | 1008.8 | |
| 20260503224557 | 10 | 0.0 | 0.0 | 0.00 | 0.00 | 0.00 | 52 | 1008.9 | |
| 20260503224043 | 10 | 0.0 | 0.0 | 0.00 | 0.00 | 0.00 | 50 | 1008.9 | |
| 20260503223543 | 10 | 0.0 | 0.0 | 0.00 | 0.00 | 0.00 | 50 | 1008.9 | |
| 20260503223055 | 10 | 0.0 | 0.0 | 0.00 | 0.00 | 0.00 | 51 | 1008.9 | |
| 20260503222542 | 10 | 0.0 | 0.0 | 0.00 | 0.00 | 0.00 | 51 | 1008.9 | |
| 20260503222042 | 10 | 0.0 | 0.0 | 0.00 | 0.00 | 0.00 | 50 | 1008.9 | |
| 20260503221550 | 10 | 0.0 | 0.0 | 0.00 | 0.00 | 0.00 | 50 | 1008.8 | |
| 20260503221043 | 10 | 0.0 | 0.0 | 0.00 | 0.00 | 0.00 | 48 | 1008.8 | |
| 20260503220543 | 10 | 0.0 | 0.0 | 0.00 | 0.00 | 0.00 | 50 | 1008.8 | |
| 20260503220054 | 10 | 0.0 | 0.0 | 0.00 | 0.00 | 0.00 | 50 | 1008.8 | |
| 20260503215542 | 10 | 0.0 | 0.0 | 0.00 | 0.00 | 0.00 | 48 | 1008.8 | |
| 20260503215042 | 10 | 0.0 | 0.0 | 0.00 | 0.00 | 0.00 | 50 | 1008.8 | |
| 20260503214551 | 10 | 0.0 | 0.0 | 0.00 | 0.00 | 0.00 | 48 | 1008.8 | |
| 20260503214043 | 11 | 0.0 | 0.0 | 0.00 | 0.00 | 0.00 | 47 | 1008.8 | |
| 20260503213540 | 10 | 0.0 | 0.0 | 0.00 | 0.00 | 0.00 | 50 | 1008.8 | |
| 20260503213059 | 10 | 0.0 | 0.0 | 0.00 | 0.00 | 0.00 | 49 | 1008.7 | |
| 20260503212543 | 10 | 0.0 | 0.0 | 0.00 | 0.00 | 0.00 | 49 | 1008.8 | |
| 20260503212040 | 10 | 0.0 | 0.0 | 0.00 | 0.00 | 0.00 | 50 | 1008.7 | |
| 20260503211607 | 10 | 0.0 | 0.0 | 0.00 | 0.00 | 0.00 | 49 | 1008.7 | |
| 20260503211042 | 10 | 0.0 | 0.0 | 0.00 | 0.00 | 0.00 | 48 | 1008.7 | |
| 20260503210546 | 10 | 0.0 | 0.0 | 0.00 | 0.00 | 0.00 | 49 | 1008.7 | |
| 20260503210050 | 10 | 0.0 | 0.0 | 0.00 | 0.00 | 0.00 | 47 | 1008.8 | |
| 20260503205543 | 10 | 0.0 | 0.0 | 0.00 | 0.00 | 0.00 | 47 | 1008.6 | |
| 20260503205043 | 10 | 0.0 | 0.0 | 0.00 | 0.00 | 0.00 | 46 | 1008.6 | |
| 20260503204550 | 10 | 0.0 | 0.0 | 0.00 | 0.00 | 0.00 | 47 | 1008.8 | |
| 20260503204043 | 10 | 0.0 | 0.0 | 0.00 | 0.00 | 0.00 | 45 | 1008.8 | |
| 20260503203542 | 10 | 0.0 | 0.0 | 0.00 | 0.00 | 0.00 | 44 | 1008.8 | |
| 20260503203049 | 10 | 0.0 | 0.0 | 0.00 | 0.00 | 0.00 | 46 | 1008.9 | |
| 20260503202540 | 10 | 0.0 | 0.0 | 0.00 | 0.00 | 0.00 | 46 | 1008.8 | |
| 20260503202043 | 10 | 0.0 | 0.0 | 0.00 | 0.00 | 0.00 | 44 | 1008.9 | |
| 20260503201554 | 10 | 0.0 | 0.0 | 0.00 | 0.00 | 0.00 | 44 | 1008.8 | |
| 20260503201044 | 10 | 0.0 | 0.0 | 0.00 | 0.00 | 0.00 | 41 | 1008.9 | |
| 20260503200542 | 10 | 0.0 | 0.0 | 0.00 | 0.00 | 0.00 | 43 | 1008.8 | |
| 20260503200055 | 10 | 0.0 | 0.0 | 0.00 | 0.00 | 0.00 | 42 | 1008.9 | |
| 20260503195540 | 10 | 0.0 | 0.0 | 0.00 | 0.00 | 0.00 | 41 | 1009.0 | |
| 20260503195043 | 11 | 0.0 | 0.0 | 0.00 | 0.00 | 0.00 | 39 | 1008.9 | |
| 20260503194603 | 11 | 0.0 | 0.0 | 0.00 | 0.00 | 0.00 | 41 | 1009.0 | |
| 20260503194043 | 11 | 0.0 | 0.0 | 0.00 | 0.00 | 0.00 | 43 | 1009.1 | |
| 20260503193543 | 10 | 0.0 | 0.0 | 0.00 | 0.00 | 0.00 | 40 | 1009.2 | |
| 20260503193102 | 11 | 0.0 | 0.0 | 0.00 | 0.00 | 0.00 | 45 | 1009.2 | |
| 20260503192543 | 11 | 0.0 | 0.0 | 0.00 | 0.00 | 0.00 | 40 | 1009.2 | |
| 20260503192044 | 10 | 0.0 | 0.0 | 0.00 | 0.00 | 0.00 | 42 | 1009.3 | |
| 20260503191554 | 10 | 0.0 | 0.0 | 0.00 | 0.00 | 0.00 | 40 | 1009.3 |